Tracking 29487 objects as of 11-Sep-2024
HD Live streaming from Space Station
objects crossing your sky now

FLOCK 1C 3

Track FLOCK 1C 3 now!
10-day predictions
FLOCK 1C 3 is classified as:


NORAD ID: 40041
Int'l Code: 2014-033AH
Perigee: 471.3 km
Apogee: 486.6 km
Inclination: 98.1 °
Period: 94.0 minutes
Semi major axis: 6849 km
RCS: Unknown
Launch date: June 19, 2014
Source: United States (US)
Launch site: Orenburg, Russia (OREN)
Your satellite tracking list
Your tracking list is empty




NASA's NSSDC Master Catalog

Two Line Element Set (TLE):
1 40041U 14033AH  24255.51066680  .00115246  00000-0  37506-2 0  9992
2 40041  98.0837 247.0917 0011148 157.3764 202.7969 15.31335269556812
Source of the keplerian elements: AFSPC